Location: Alvis C Story Elementary School
(33.0968°N, 96.6364°W)
Time: 05:24:13
(UTC+00:00)

Cosmos 2228 Rocket - Pass Details

Date: 27 June 2022
Orbit: 618 x 651 km, 82.5° (Epoch: 12 August)

Event Time Altitude Azimuth Distance (km) Brightness Sun altitude
Rises 09:54:36 0° 14° (NNE) 2,905 7.5 -15.4°
Reaches altitude 10° 09:57:34 10° 35° (NE) 1,999 7.0 -14.9°
Maximum altitude 10:00:24 17° 75° (ENE) 1,610 6.1 -14.5°
Drops below altitude 10° 10:03:14 10° 116° (ESE) 2,003 6.0 -14.0°
Sets 10:06:12 0° 137° (SE) 2,912 6.6 -13.6°
